Regional Weather Roundup
Issued by NWS Cleveland, OH

Current Version | Previous Version | Text Only | Print | Product List | Glossary On
Versions: 1 2 3 4 5 6 7 8 9 10 11 12 13 14 15 16 17 18 19 20 21 22 23 24 25 26 27 28 29 30 31 32 33 34 35 36 37 38 39 40 41 42 43 44 45 46 47 48 49 50
000
ASUS41 KCLE 240012
RWRCLE
OHIO REGIONAL WEATHER ROUNDUP
NATIONAL WEATHER SERVICE WILMINGTON, OH
800 PM EDT MON MAY 23 2022

NOTE: "FAIR" INDICATES FEW OR NO CLOUDS BELOW 12,000 FEET WITH NO
SIGNIFICANT WEATHER AND/OR OBSTRUCTIONS TO VISIBILITY.

OHZ001>008-015>018-024>027-034-035-043-044-240100-
   NORTHWEST OHIO

CITY           SKY/WX    TMP DP  RH WIND       PRES   REMARKS
DEFIANCE       FAIR      60  42  51 E8        30.26R
FINDLAY        FAIR      60  40  47 NE12      30.23S
TOLEDO EXPRESS FAIR      59  42  53 NE12      30.26F
TOLEDO EXEC    MOCLDY    60  42  51 E10       30.27F
LIMA           FAIR      59  46  62 NE6       30.22S
$$

OHZ009>014-019>023-028>033-038-089-240100-
   NORTHEAST OHIO

CITY           SKY/WX    TMP DP  RH WIND       PRES   REMARKS
CLE-HOPKINS    MOCLDY    57  40  52 NE16      30.22S
CLE-LAKEFRONT  FAIR      58  45  62 NE17      30.24S
CUY CO. ARPT   MOCLDY    55  37  50 NE9       30.25S
LORAIN-ELYRIA  FAIR      57  38  48 NE13      30.24F
ASHTABULA      FAIR      56  38  50 NE3       30.26F
AKRON-CANTON   CLOUDY    61  47  59 NE8       30.21S
WOOSTER        FAIR      58  47  66 N10       30.21F
MANSFIELD      MOCLDY    57  44  62 N10       30.22S
YOUNGSTOWN     CLOUDY    57  41  55 N9        30.23F
$$

OHZ042-051>053-060>062-070>072-077>081-240100-
  SOUTHWEST OHIO

CITY           SKY/WX    TMP DP  RH WIND       PRES   REMARKS
CINC-COVINGTON MOCLDY    61  53  75 E10       30.17S
CINC-LUNKEN    MOCLDY    62  50  64 NE7       30.18S
HAMILTON       CLOUDY    64  52  64 E9        30.19R
DAYTON         CLOUDY    64  51  62 NE9       30.19S
WRIGHT-PAT AFB CLOUDY    64  49  57 E7        30.15S
DAYTON GENERAL CLOUDY    63  52  67 SE6       30.18R
WILMINGTON     CLOUDY    59  53  80 VRB7      30.18S
$$

OHZ036-037-039>041-045>050-054>059-063>069-073>076-082>088-240100-
  CENTRAL AND SOUTHEAST OHIO

CITY           SKY/WX    TMP DP  RH WIND       PRES   REMARKS
COLUMBUS       CLOUDY    63  52  67 NE9       30.18S
OSU AIRPORT    MOCLDY    64  50  60 E6        30.19S
BOLTON FIELD   CLOUDY    63  50  63 NE5       30.19S
RICKENBACK AFB CLOUDY    62  51  68 E7        30.18S
NEWARK         CLOUDY    63  49  60 NE3       30.18S
MARION         NOT AVBL
LANCASTER      CLOUDY    60  54  80 E6        30.18S
ZANESVILLE     CLOUDY    60  50  69 NE5       30.18F
NEW PHILLY     FAIR      62  49  62 NE3       30.20S
$$



USA.gov is the U.S. government's official web portal to all federal, state and local government web resources and services.